Simultaneous Nadir Overpasses (SNOs) Predictions

Prediction of SNOs between GOES-15 and TERRA Satellite Orbit:

Table of predicted SNOs for the next 14.0 days since TLE Epoch: 3/12/2021
Index Date Time (GOES-15) GOES-15 Lat,Lon TERRA Lat,Lon Distance(km) Time Diff (sec)
1 03/13/2021 06:49:58 -0.16,-128.35 0.44,-125.58 314.77 80
2 03/13/2021 19:11:12 0.16,-128.43 0.67,-130.74 262.19 80
3 03/15/2021 19:01:40 0.16,-128.45 -0.01,-127.79 75.51 80
4 03/17/2021 18:49:27 0.16,-128.46 -0.63,-124.83 412.59 80
5 03/18/2021 07:10:50 -0.15,-128.38 -0.53,-130.01 186.46 80
6 03/20/2021 06:55:58 -0.15,-128.38 0.15,-127.07 149.72 80
7 03/20/2021 19:17:13 0.15,-128.45 0.95,-132.22 428.43 80
8 03/22/2021 06:43:45 -0.14,-128.37 0.78,-124.11 485.15 80
9 03/22/2021 19:05:00 0.14,-128.45 0.33,-129.26 93.07 80
10 03/24/2021 18:55:27 0.14,-128.43 -0.30,-126.30 241.80 80
11 03/25/2021 07:16:51 -0.13,-128.36 -0.78,-131.50 357.04 80
